GFSMA_prec_precacc_048.txt.gz
Total_Precipitation_Accumulation
0.00 0.00 0.00 0.00 0.00 0.00 0.00 0.00 0.00 0.00 0.00 0.00 0.00 0.00 0.00 0.00 0.00 0.00 0.00 0.00 0.00 0.00 0.00 0.00 0.00 0.00 0.00 0.03 0.07 0.10 0.17 0.24 0.21 0.25 0.40 0.45 0.31 0.28 0.23 0.21 0.16 0.12 0.16
0.01 0.00 0.00 0.00 0.00 0.00 0.00 0.00 0.00 0.00 0.00 0.00 0.00 0.00 0.00 0.00 0.00 0.00 0.00 0.00 0.00 0.00 0.00 0.00 0.00 0.00 0.00 0.00 0.01 0.04 0.08 0.12 0.21 0.29 0.33 0.37 0.35 0.27 0.25 0.22 0.21 0.19 0.16
0.02 0.00 0.00 0.00 0.00 0.00 0.00 0.00 0.00 0.00 0.00 0.00 0.00 0.00 0.00 0.00 0.00 0.00 0.00 0.00 0.00 0.00 0.00 0.00 0.00 0.00 0.00 0.00 0.00 0.00 0.00 0.01 0.06 0.15 0.21 0.31 0.43 0.35 0.33 0.31 0.28 0.30 0.26
0.03 0.01 0.00 0.00 0.00 0.00 0.00 0.00 0.00 0.00 0.00 0.00 0.00 0.00 0.00 0.00 0.00 0.00 0.00 0.00 0.00 0.00 0.00 0.00 0.00 0.00 0.00 0.00 0.00 0.00 0.00 0.00 0.01 0.06 0.11 0.27 0.49 0.43 0.42 0.34 0.36 0.42 0.41
0.00 0.00 0.00 0.00 0.00 0.00 0.00 0.00 0.00 0.00 0.00 0.00 0.00 0.00 0.00 0.00 0.00 0.00 0.00 0.00 0.00 0.00 0.00 0.00 0.00 0.00 0.00 0.00 0.00 0.00 0.00 0.00 0.00 0.02 0.07 0.12 0.22 0.60 0.78 0.65 0.43 0.45 0.53
0.00 0.00 0.00 0.00 0.00 0.00 0.00 0.00 0.00 0.00 0.00 0.00 0.00 0.00 0.00 0.00 0.00 0.00 0.00 0.00 0.00 0.00 0.00 0.00 0.00 0.00 0.00 0.00 0.00 0.00 0.00 0.00 0.01 0.01 0.03 0.06 0.10 0.17 0.30 0.55 0.78 0.81 0.73
0.00 0.00 0.00 0.00 0.00 0.00 0.00 0.00 0.00 0.00 0.00 0.00 0.00 0.00 0.00 0.00 0.00 0.00 0.00 0.00 0.00 0.00 0.00 0.00 0.00 0.00 0.00 0.00 0.00 0.00 0.00 0.00 0.00 0.00 0.02 0.02 0.02 0.04 0.17 0.35 0.65 0.94 1.19
0.00 0.00 0.00 0.00 0.00 0.00 0.00 0.00 0.00 0.00 0.00 0.00 0.00 0.00 0.00 0.00 0.00 0.00 0.00 0.00 0.00 0.00 0.00 0.00 0.00 0.00 0.00 0.00 0.00 0.00 0.01 0.01 0.00 0.00 0.00 0.01 0.02 0.02 0.01 0.04 0.22 0.64 0.94
0.00 0.00 0.00 0.00 0.00 0.00 0.00 0.00 0.00 0.00 0.00 0.00 0.00 0.00 0.00 0.00 0.00 0.00 0.00 0.00 0.02 0.01 0.01 0.01 0.01 0.01 0.00 0.00 0.00 0.00 0.00 0.00 0.00 0.00 0.00 0.00 0.01 0.01 0.02 0.03 0.08 0.21 0.48
0.00 0.00 0.00 0.00 0.00 0.00 0.00 0.00 0.00 0.00 0.00 0.00 0.00 0.00 0.00 0.02 0.03 0.02 0.00 0.00 0.00 0.01 0.02 0.01 0.03 0.04 0.05 0.05 0.03 0.01 0.00 0.00 0.00 0.00 0.00 0.00 0.00 0.01 0.03 0.04 0.05 0.08 0.18
0.00 0.00 0.00 0.00 0.00 0.00 0.00 0.00 0.00 0.00 0.00 0.00 0.00 0.00 0.00 0.00 0.02 0.05 0.03 0.01 0.01 0.02 0.02 0.03 0.05 0.08 0.14 0.13 0.12 0.10 0.07 0.03 0.01 0.00 0.00 0.00 0.00 0.01 0.02 0.04 0.04 0.06 0.15
0.01 0.00 0.00 0.00 0.00 0.00 0.00 0.00 0.01 0.00 0.00 0.00 0.00 0.00 0.00 0.01 0.02 0.04 0.04 0.01 0.03 0.04 0.05 0.12 0.20 0.15 0.15 0.14 0.15 0.19 0.12 0.07 0.04 0.03 0.02 0.01 0.00 0.00 0.01 0.02 0.03 0.05 0.14
0.00 0.00 0.00 0.00 0.00 0.01 0.03 0.02 0.01 0.01 0.01 0.03 0.03 0.04 0.03 0.03 0.05 0.07 0.10 0.10 0.15 0.06 0.08 0.11 0.15 0.15 0.22 0.39 0.35 0.26 0.16 0.18 0.14 0.05 0.02 0.03 0.03 0.01 0.01 0.02 0.04 0.05 0.09
0.00 0.01 0.01 0.03 0.04 0.03 0.01 0.02 0.03 0.03 0.04 0.07 0.11 0.15 0.17 0.19 0.23 0.28 0.35 0.42 0.34 0.15 0.11 0.11 0.05 0.10 0.13 0.14 0.26 0.28 0.16 0.14 0.16 0.16 0.11 0.05 0.01 0.00 0.01 0.01 0.02 0.04 0.06
0.01 0.08 0.12 0.05 0.01 0.01 0.01 0.00 0.02 0.04 0.07 0.11 0.11 0.11 0.13 0.12 0.14 0.16 0.20 0.28 0.53 0.38 0.06 0.04 0.07 0.09 0.13 0.11 0.14 0.21 0.25 0.19 0.15 0.14 0.10 0.07 0.06 0.03 0.01 0.00 0.00 0.01 0.02
0.05 0.05 0.01 0.02 0.02 0.01 0.01 0.01 0.03 0.06 0.08 0.07 0.06 0.05 0.04 0.04 0.04 0.05 0.06 0.07 0.10 0.14 0.09 0.00 0.00 0.00 0.01 0.03 0.05 0.07 0.13 0.19 0.13 0.14 0.17 0.11 0.04 0.07 0.08 0.05 0.01 0.00 0.00
0.01 0.02 0.03 0.02 0.02 0.03 0.08 0.10 0.08 0.06 0.05 0.04 0.03 0.04 0.03 0.02 0.02 0.01 0.01 0.00 0.00 0.01 0.01 0.00 0.00 0.00 0.00 0.00 0.00 0.00 0.00 0.02 0.04 0.04 0.13 0.19 0.12 0.09 0.10 0.11 0.09 0.04 0.00
0.02 0.04 0.04 0.03 0.05 0.07 0.07 0.07 0.04 0.02 0.01 0.01 0.01 0.01 0.01 0.00 0.00 0.00 0.00 0.00 0.00 0.00 0.00 0.00 0.00 0.00 0.00 0.00 0.00 0.00 0.00 0.00 0.00 0.00 0.02 0.07 0.13 0.11 0.10 0.08 0.06 0.08 0.08
0.02 0.02 0.03 0.05 0.04 0.03 0.02 0.01 0.00 0.00 0.00 0.00 0.00 0.00 0.00 0.00 0.00 0.00 0.00 0.00 0.00 0.01 0.01 0.03 0.01 0.00 0.00 0.00 0.00 0.01 0.01 0.01 0.00 0.00 0.00 0.01 0.01 0.04 0.05 0.05 0.04 0.06 0.10
0.02 0.01 0.01 0.01 0.02 0.01 0.00 0.00 0.00 0.00 0.00 0.00 0.00 0.00 0.00 0.00 0.00 0.00 0.01 0.01 0.01 0.01 0.01 0.02 0.02 0.02 0.02 0.02 0.03 0.03 0.03 0.02 0.01 0.00 0.00 0.00 0.01 0.02 0.01 0.02 0.01 0.01 0.05
0.01 0.00 0.02 0.04 0.02 0.00 0.00 0.00 0.00 0.00 0.00 0.00 0.00 0.00 0.00 0.00 0.00 0.01 0.01 0.01 0.02 0.04 0.05 0.06 0.05 0.05 0.03 0.02 0.04 0.04 0.06 0.03 0.02 0.03 0.03 0.02 0.03 0.03 0.03 0.02 0.01 0.01 0.01
0.02 0.06 0.07 0.03 0.01 0.00 0.00 0.00 0.00 0.00 0.00 0.00 0.00 0.00 0.00 0.00 0.00 0.00 0.01 0.01 0.03 0.09 0.15 0.11 0.09 0.07 0.05 0.06 0.08 0.10 0.11 0.10 0.06 0.05 0.08 0.06 0.06 0.05 0.04 0.07 0.14 0.13 0.09
0.12 0.07 0.02 0.00 0.00 0.00 0.00 0.00 0.00 0.00 0.00 0.00 0.00 0.00 0.00 0.00 0.00 0.00 0.01 0.01 0.02 0.03 0.10 0.15 0.17 0.11 0.10 0.08 0.08 0.09 0.09 0.12 0.11 0.04 0.05 0.06 0.05 0.06 0.03 0.01 0.04 0.03 0.02
0.06 0.01 0.00 0.00 0.00 0.00 0.00 0.00 0.00 0.00 0.00 0.00 0.00 0.00 0.00 0.00 0.00 0.02 0.09 0.08 0.03 0.02 0.02 0.05 0.10 0.09 0.08 0.08 0.10 0.12 0.16 0.15 0.08 0.02 0.04 0.10 0.04 0.05 0.04 0.02 0.01 0.01 0.01
0.00 0.00 0.00 0.00 0.01 0.00 0.00 0.00 0.00 0.00 0.01 0.01 0.00 0.00 0.01 0.01 0.02 0.08 0.14 0.12 0.05 0.03 0.02 0.02 0.05 0.07 0.08 0.08 0.10 0.21 0.22 0.25 0.21 0.07 0.06 0.11 0.06 0.06 0.05 0.03 0.01 0.00 0.00
0.00 0.00 0.00 0.00 0.00 0.01 0.01 0.00 0.01 0.02 0.02 0.02 0.02 0.01 0.01 0.04 0.11 0.15 0.24 0.20 0.17 0.06 0.03 0.04 0.03 0.04 0.04 0.05 0.04 0.11 0.18 0.28 0.23 0.17 0.05 0.22 0.09 0.13 0.18 0.08 0.05 0.03 0.02

GFSMA_prec_precacc_051.txt.gz
Total_Precipitation_Accumulation
0.00 0.00 0.00 0.00 0.00 0.00 0.00 0.00 0.00 0.00 0.00 0.00 0.00 0.00 0.00 0.00 0.00 0.00 0.00 0.00 0.00 0.00 0.00 0.00 0.00 0.00 0.00 0.03 0.07 0.10 0.17 0.24 0.21 0.25 0.40 0.45 0.31 0.28 0.23 0.21 0.16 0.12 0.16
0.01 0.00 0.00 0.00 0.00 0.00 0.00 0.00 0.00 0.00 0.00 0.00 0.00 0.00 0.00 0.00 0.00 0.00 0.00 0.00 0.00 0.00 0.00 0.00 0.00 0.00 0.00 0.00 0.01 0.04 0.08 0.12 0.21 0.29 0.33 0.37 0.35 0.27 0.25 0.22 0.21 0.19 0.16
0.04 0.02 0.00 0.00 0.00 0.00 0.00 0.00 0.00 0.00 0.00 0.00 0.00 0.00 0.00 0.00 0.00 0.00 0.00 0.00 0.00 0.00 0.00 0.00 0.00 0.00 0.00 0.00 0.00 0.00 0.00 0.01 0.06 0.15 0.21 0.31 0.43 0.35 0.33 0.31 0.28 0.30 0.26
0.08 0.04 0.01 0.00 0.00 0.00 0.00 0.00 0.00 0.00 0.00 0.00 0.00 0.00 0.00 0.00 0.00 0.00 0.00 0.00 0.00 0.00 0.00 0.00 0.00 0.00 0.00 0.00 0.00 0.00 0.00 0.00 0.01 0.06 0.11 0.27 0.49 0.43 0.42 0.34 0.36 0.42 0.41
0.04 0.02 0.01 0.00 0.00 0.00 0.00 0.00 0.00 0.00 0.00 0.00 0.00 0.00 0.00 0.00 0.00 0.00 0.00 0.00 0.00 0.00 0.00 0.00 0.00 0.00 0.00 0.00 0.00 0.00 0.00 0.00 0.00 0.02 0.07 0.12 0.22 0.60 0.78 0.65 0.43 0.45 0.53
0.01 0.00 0.00 0.00 0.00 0.00 0.00 0.00 0.00 0.00 0.00 0.00 0.00 0.00 0.00 0.00 0.00 0.00 0.00 0.00 0.00 0.00 0.00 0.00 0.00 0.00 0.00 0.00 0.00 0.00 0.00 0.00 0.01 0.01 0.03 0.06 0.10 0.17 0.30 0.55 0.78 0.81 0.73
0.00 0.00 0.00 0.00 0.00 0.00 0.00 0.00 0.00 0.00 0.00 0.00 0.00 0.00 0.00 0.00 0.00 0.00 0.00 0.00 0.00 0.00 0.00 0.00 0.00 0.00 0.00 0.00 0.00 0.00 0.00 0.00 0.00 0.00 0.02 0.02 0.02 0.04 0.17 0.35 0.65 0.94 1.19
0.00 0.00 0.00 0.00 0.00 0.00 0.00 0.00 0.00 0.00 0.00 0.00 0.00 0.00 0.00 0.00 0.00 0.00 0.00 0.00 0.00 0.00 0.00 0.00 0.00 0.00 0.00 0.00 0.00 0.00 0.01 0.01 0.00 0.00 0.00 0.01 0.02 0.02 0.01 0.04 0.22 0.64 0.94
0.00 0.00 0.00 0.00 0.00 0.00 0.00 0.00 0.00 0.00 0.00 0.00 0.00 0.00 0.00 0.00 0.00 0.00 0.00 0.00 0.02 0.01 0.01 0.01 0.01 0.01 0.00 0.00 0.00 0.00 0.00 0.00 0.00 0.00 0.00 0.00 0.01 0.01 0.02 0.03 0.08 0.21 0.48
0.00 0.00 0.00 0.00 0.00 0.00 0.00 0.00 0.00 0.00 0.00 0.00 0.00 0.00 0.00 0.02 0.03 0.02 0.00 0.00 0.00 0.01 0.02 0.01 0.03 0.04 0.05 0.05 0.03 0.01 0.00 0.00 0.00 0.00 0.00 0.00 0.00 0.01 0.03 0.04 0.05 0.08 0.18
0.00 0.00 0.00 0.00 0.00 0.00 0.00 0.00 0.00 0.00 0.00 0.00 0.00 0.00 0.00 0.00 0.02 0.05 0.03 0.01 0.01 0.02 0.02 0.03 0.05 0.08 0.14 0.13 0.12 0.10 0.07 0.03 0.01 0.00 0.00 0.00 0.00 0.01 0.02 0.04 0.04 0.06 0.15
0.01 0.00 0.00 0.00 0.00 0.00 0.00 0.01 0.04 0.02 0.00 0.00 0.00 0.00 0.00 0.01 0.02 0.04 0.04 0.01 0.03 0.04 0.05 0.12 0.20 0.15 0.15 0.14 0.15 0.19 0.12 0.07 0.04 0.03 0.02 0.01 0.00 0.00 0.01 0.02 0.03 0.05 0.14
0.01 0.00 0.00 0.00 0.00 0.02 0.05 0.04 0.02 0.02 0.01 0.03 0.03 0.04 0.03 0.03 0.05 0.07 0.10 0.10 0.15 0.06 0.08 0.11 0.15 0.15 0.22 0.39 0.35 0.26 0.16 0.18 0.14 0.05 0.02 0.03 0.03 0.01 0.01 0.02 0.04 0.05 0.09
0.01 0.01 0.02 0.05 0.06 0.03 0.01 0.02 0.03 0.03 0.04 0.07 0.11 0.15 0.17 0.19 0.23 0.28 0.35 0.42 0.34 0.15 0.11 0.11 0.05 0.10 0.13 0.14 0.26 0.28 0.16 0.14 0.16 0.16 0.11 0.05 0.01 0.00 0.01 0.01 0.02 0.04 0.06
0.02 0.08 0.14 0.06 0.01 0.01 0.01 0.01 0.02 0.04 0.07 0.11 0.11 0.11 0.13 0.12 0.14 0.16 0.20 0.28 0.54 0.38 0.06 0.04 0.07 0.09 0.13 0.11 0.14 0.21 0.25 0.19 0.15 0.14 0.10 0.07 0.06 0.03 0.01 0.00 0.00 0.01 0.02
0.07 0.06 0.02 0.02 0.03 0.02 0.01 0.01 0.03 0.06 0.08 0.07 0.06 0.05 0.04 0.04 0.04 0.05 0.06 0.07 0.10 0.14 0.09 0.00 0.00 0.00 0.01 0.03 0.05 0.07 0.13 0.19 0.13 0.14 0.17 0.11 0.04 0.07 0.08 0.05 0.01 0.00 0.00
0.03 0.03 0.04 0.04 0.06 0.09 0.11 0.10 0.09 0.07 0.05 0.04 0.03 0.04 0.03 0.02 0.02 0.01 0.01 0.00 0.00 0.01 0.01 0.00 0.00 0.00 0.00 0.00 0.00 0.00 0.00 0.02 0.04 0.04 0.13 0.19 0.12 0.09 0.10 0.11 0.09 0.04 0.00
0.04 0.04 0.05 0.05 0.06 0.07 0.08 0.08 0.05 0.02 0.01 0.01 0.01 0.01 0.01 0.00 0.00 0.00 0.00 0.00 0.00 0.00 0.00 0.00 0.00 0.00 0.00 0.00 0.00 0.00 0.00 0.00 0.00 0.00 0.02 0.07 0.13 0.11 0.10 0.08 0.06 0.08 0.08
0.02 0.02 0.03 0.06 0.07 0.05 0.04 0.02 0.00 0.00 0.00 0.00 0.00 0.00 0.00 0.00 0.00 0.00 0.00 0.00 0.00 0.01 0.01 0.03 0.01 0.00 0.00 0.00 0.00 0.01 0.01 0.01 0.00 0.00 0.00 0.01 0.01 0.04 0.05 0.05 0.04 0.06 0.10
0.03 0.02 0.02 0.02 0.03 0.02 0.00 0.00 0.00 0.00 0.00 0.00 0.00 0.00 0.00 0.00 0.00 0.00 0.01 0.01 0.01 0.01 0.01 0.02 0.02 0.02 0.02 0.02 0.03 0.03 0.03 0.02 0.01 0.00 0.00 0.00 0.01 0.02 0.01 0.02 0.01 0.01 0.05
0.01 0.01 0.02 0.05 0.03 0.01 0.00 0.00 0.00 0.00 0.00 0.00 0.00 0.00 0.00 0.00 0.00 0.01 0.01 0.01 0.02 0.04 0.05 0.06 0.05 0.05 0.03 0.02 0.04 0.04 0.06 0.03 0.02 0.03 0.03 0.02 0.03 0.03 0.03 0.02 0.01 0.01 0.01
0.03 0.08 0.09 0.05 0.03 0.01 0.00 0.00 0.00 0.00 0.00 0.00 0.00 0.00 0.00 0.00 0.00 0.00 0.01 0.01 0.03 0.09 0.15 0.11 0.09 0.07 0.05 0.06 0.08 0.10 0.11 0.10 0.06 0.05 0.08 0.06 0.06 0.05 0.04 0.07 0.14 0.13 0.09
0.15 0.13 0.12 0.08 0.03 0.01 0.00 0.00 0.00 0.00 0.00 0.00 0.00 0.00 0.00 0.00 0.00 0.00 0.01 0.01 0.02 0.03 0.10 0.15 0.17 0.11 0.10 0.08 0.08 0.09 0.09 0.12 0.11 0.04 0.05 0.06 0.05 0.06 0.03 0.01 0.04 0.03 0.02
0.16 0.10 0.03 0.00 0.00 0.00 0.00 0.00 0.00 0.00 0.00 0.00 0.00 0.00 0.00 0.00 0.00 0.02 0.09 0.08 0.03 0.02 0.02 0.05 0.10 0.09 0.08 0.08 0.10 0.12 0.16 0.15 0.08 0.02 0.04 0.10 0.04 0.05 0.04 0.02 0.01 0.01 0.01
0.01 0.00 0.00 0.00 0.01 0.00 0.00 0.00 0.00 0.00 0.01 0.01 0.00 0.00 0.01 0.01 0.02 0.08 0.14 0.12 0.05 0.03 0.02 0.02 0.05 0.07 0.08 0.08 0.10 0.21 0.22 0.25 0.21 0.07 0.06 0.11 0.06 0.06 0.05 0.03 0.01 0.00 0.00
0.00 0.00 0.00 0.00 0.00 0.01 0.01 0.00 0.01 0.02 0.02 0.02 0.02 0.01 0.01 0.04 0.11 0.15 0.24 0.21 0.18 0.06 0.03 0.04 0.03 0.04 0.04 0.05 0.04 0.11 0.18 0.28 0.23 0.17 0.05 0.22 0.09 0.13 0.18 0.08 0.05 0.03 0.02

GFSMA_prec_precacc_057.txt.gz
Total_Precipitation_Accumulation
0.00 0.00 0.00 0.00 0.00 0.00 0.00 0.00 0.00 0.00 0.00 0.00 0.00 0.00 0.00 0.00 0.00 0.00 0.00 0.00 0.00 0.00 0.00 0.00 0.00 0.00 0.00 0.03 0.07 0.10 0.17 0.24 0.21 0.25 0.40 0.45 0.31 0.28 0.23 0.21 0.16 0.12 0.16
0.01 0.00 0.00 0.00 0.00 0.00 0.00 0.00 0.00 0.00 0.00 0.00 0.00 0.00 0.00 0.00 0.00 0.00 0.00 0.00 0.00 0.00 0.00 0.00 0.00 0.00 0.00 0.00 0.01 0.04 0.08 0.12 0.21 0.29 0.33 0.37 0.35 0.27 0.25 0.22 0.21 0.19 0.16
0.04 0.02 0.00 0.00 0.00 0.00 0.00 0.00 0.00 0.00 0.00 0.00 0.00 0.00 0.00 0.00 0.00 0.00 0.00 0.00 0.00 0.00 0.00 0.00 0.00 0.00 0.00 0.00 0.00 0.00 0.00 0.01 0.06 0.15 0.21 0.31 0.43 0.35 0.33 0.31 0.28 0.30 0.26
0.09 0.04 0.01 0.00 0.00 0.00 0.00 0.00 0.00 0.00 0.00 0.00 0.00 0.00 0.00 0.00 0.00 0.00 0.00 0.00 0.00 0.00 0.00 0.00 0.00 0.00 0.00 0.00 0.00 0.00 0.00 0.00 0.01 0.06 0.11 0.27 0.49 0.43 0.42 0.34 0.36 0.42 0.41
0.08 0.04 0.02 0.00 0.00 0.00 0.00 0.00 0.00 0.00 0.00 0.00 0.00 0.00 0.00 0.00 0.00 0.00 0.00 0.00 0.00 0.00 0.00 0.00 0.00 0.00 0.00 0.00 0.00 0.00 0.00 0.00 0.00 0.02 0.07 0.12 0.22 0.60 0.78 0.65 0.43 0.45 0.53
0.05 0.01 0.01 0.00 0.00 0.00 0.00 0.00 0.00 0.00 0.00 0.00 0.00 0.00 0.00 0.00 0.00 0.00 0.00 0.00 0.00 0.00 0.00 0.00 0.00 0.00 0.00 0.00 0.00 0.00 0.00 0.00 0.01 0.01 0.03 0.06 0.10 0.17 0.30 0.55 0.78 0.81 0.73
0.04 0.01 0.00 0.01 0.00 0.00 0.00 0.00 0.00 0.00 0.00 0.00 0.00 0.00 0.00 0.00 0.00 0.00 0.00 0.00 0.00 0.00 0.00 0.00 0.00 0.00 0.00 0.00 0.00 0.00 0.00 0.00 0.00 0.00 0.02 0.02 0.02 0.04 0.17 0.35 0.65 0.94 1.19
0.04 0.01 0.02 0.02 0.00 0.00 0.00 0.00 0.00 0.00 0.00 0.00 0.00 0.00 0.00 0.00 0.00 0.00 0.00 0.00 0.00 0.00 0.00 0.00 0.00 0.00 0.00 0.00 0.00 0.00 0.01 0.01 0.00 0.00 0.00 0.01 0.02 0.02 0.01 0.04 0.22 0.64 0.94
0.13 0.06 0.02 0.00 0.00 0.00 0.00 0.00 0.00 0.00 0.00 0.00 0.00 0.00 0.00 0.00 0.00 0.00 0.00 0.00 0.02 0.01 0.01 0.01 0.01 0.01 0.00 0.00 0.00 0.00 0.00 0.00 0.00 0.00 0.00 0.00 0.01 0.01 0.02 0.03 0.08 0.21 0.48
0.10 0.09 0.05 0.04 0.00 0.00 0.00 0.00 0.00 0.00 0.00 0.00 0.00 0.00 0.00 0.02 0.03 0.02 0.00 0.00 0.00 0.01 0.02 0.01 0.03 0.04 0.05 0.05 0.03 0.01 0.00 0.00 0.00 0.00 0.00 0.00 0.00 0.01 0.03 0.04 0.05 0.08 0.18
0.06 0.04 0.03 0.02 0.01 0.00 0.00 0.00 0.00 0.00 0.01 0.00 0.00 0.00 0.00 0.00 0.02 0.05 0.03 0.01 0.01 0.02 0.02 0.03 0.05 0.08 0.14 0.13 0.12 0.10 0.07 0.03 0.01 0.00 0.00 0.00 0.00 0.01 0.02 0.04 0.04 0.06 0.15
0.05 0.04 0.04 0.03 0.02 0.01 0.00 0.01 0.04 0.03 0.01 0.00 0.00 0.00 0.00 0.01 0.02 0.04 0.04 0.01 0.03 0.04 0.05 0.12 0.20 0.15 0.15 0.14 0.15 0.19 0.12 0.07 0.04 0.03 0.02 0.01 0.00 0.00 0.01 0.02 0.03 0.05 0.14
0.03 0.06 0.09 0.08 0.05 0.06 0.08 0.04 0.02 0.02 0.01 0.03 0.03 0.04 0.03 0.03 0.05 0.07 0.10 0.10 0.15 0.06 0.08 0.11 0.15 0.15 0.22 0.39 0.35 0.26 0.16 0.18 0.14 0.05 0.02 0.03 0.03 0.01 0.01 0.02 0.04 0.05 0.09
0.12 0.21 0.27 0.25 0.20 0.12 0.04 0.06 0.06 0.03 0.05 0.07 0.11 0.16 0.17 0.19 0.23 0.28 0.35 0.42 0.34 0.15 0.11 0.11 0.05 0.10 0.13 0.14 0.26 0.28 0.16 0.14 0.16 0.16 0.11 0.05 0.01 0.00 0.01 0.01 0.02 0.04 0.06
0.09 0.17 0.25 0.18 0.16 0.17 0.11 0.07 0.05 0.07 0.09 0.12 0.13 0.13 0.13 0.12 0.14 0.16 0.20 0.28 0.54 0.38 0.06 0.04 0.07 0.09 0.13 0.11 0.14 0.21 0.25 0.19 0.15 0.14 0.10 0.07 0.06 0.03 0.01 0.00 0.00 0.01 0.03
0.13 0.13 0.14 0.18 0.16 0.11 0.09 0.08 0.07 0.09 0.11 0.13 0.10 0.05 0.04 0.04 0.04 0.05 0.06 0.07 0.10 0.14 0.09 0.00 0.00 0.00 0.01 0.03 0.05 0.07 0.13 0.19 0.13 0.14 0.17 0.11 0.04 0.07 0.08 0.05 0.01 0.00 0.00
0.07 0.07 0.07 0.09 0.11 0.14 0.19 0.18 0.14 0.12 0.11 0.06 0.03 0.04 0.03 0.02 0.02 0.01 0.01 0.00 0.00 0.01 0.01 0.00 0.00 0.00 0.00 0.00 0.00 0.00 0.00 0.02 0.04 0.04 0.13 0.19 0.12 0.09 0.10 0.11 0.09 0.04 0.00
0.05 0.06 0.08 0.07 0.09 0.12 0.13 0.13 0.10 0.07 0.04 0.02 0.01 0.01 0.01 0.00 0.00 0.00 0.00 0.00 0.00 0.00 0.00 0.00 0.00 0.00 0.00 0.00 0.00 0.00 0.00 0.00 0.00 0.00 0.02 0.07 0.13 0.11 0.10 0.08 0.06 0.08 0.08
0.04 0.04 0.05 0.08 0.09 0.08 0.12 0.11 0.06 0.04 0.01 0.00 0.00 0.00 0.00 0.00 0.00 0.00 0.00 0.00 0.00 0.01 0.01 0.03 0.01 0.00 0.00 0.00 0.00 0.01 0.01 0.01 0.00 0.00 0.00 0.01 0.01 0.04 0.05 0.05 0.04 0.06 0.10
0.03 0.02 0.03 0.04 0.06 0.08 0.07 0.05 0.03 0.01 0.00 0.00 0.00 0.00 0.00 0.00 0.00 0.00 0.01 0.01 0.01 0.01 0.01 0.02 0.02 0.02 0.02 0.02 0.03 0.03 0.03 0.02 0.01 0.00 0.00 0.00 0.01 0.02 0.01 0.02 0.01 0.01 0.05
0.02 0.01 0.03 0.07 0.06 0.04 0.04 0.02 0.01 0.00 0.00 0.00 0.00 0.00 0.00 0.00 0.00 0.01 0.01 0.01 0.02 0.04 0.05 0.07 0.06 0.05 0.04 0.03 0.04 0.04 0.06 0.03 0.02 0.03 0.03 0.02 0.03 0.03 0.03 0.02 0.01 0.01 0.01
0.03 0.08 0.10 0.08 0.06 0.03 0.02 0.00 0.00 0.00 0.00 0.00 0.00 0.00 0.00 0.00 0.00 0.00 0.01 0.01 0.03 0.10 0.16 0.13 0.11 0.09 0.06 0.07 0.08 0.10 0.11 0.10 0.06 0.05 0.08 0.06 0.06 0.05 0.04 0.07 0.14 0.13 0.09
0.16 0.15 0.15 0.10 0.04 0.01 0.01 0.00 0.00 0.00 0.00 0.00 0.00 0.00 0.00 0.00 0.00 0.00 0.01 0.01 0.02 0.03 0.10 0.17 0.20 0.14 0.13 0.09 0.09 0.09 0.09 0.12 0.11 0.04 0.05 0.06 0.05 0.06 0.03 0.01 0.04 0.03 0.02
0.17 0.11 0.03 0.01 0.01 0.00 0.00 0.00 0.00 0.00 0.00 0.00 0.00 0.00 0.00 0.00 0.00 0.02 0.09 0.09 0.05 0.03 0.03 0.05 0.11 0.09 0.09 0.09 0.11 0.12 0.16 0.15 0.08 0.02 0.04 0.10 0.04 0.05 0.04 0.02 0.01 0.01 0.01
0.01 0.00 0.00 0.00 0.01 0.00 0.00 0.00 0.00 0.00 0.01 0.01 0.00 0.00 0.01 0.01 0.02 0.08 0.14 0.13 0.07 0.05 0.05 0.06 0.07 0.08 0.08 0.08 0.10 0.21 0.22 0.25 0.21 0.07 0.06 0.11 0.06 0.06 0.05 0.03 0.02 0.00 0.00
0.00 0.00 0.00 0.00 0.00 0.01 0.01 0.00 0.01 0.02 0.02 0.02 0.02 0.01 0.01 0.04 0.11 0.15 0.25 0.23 0.21 0.08 0.08 0.09 0.07 0.06 0.05 0.05 0.04 0.11 0.18 0.28 0.23 0.17 0.05 0.22 0.09 0.13 0.18 0.08 0.05 0.03 0.02

GFSMA_prec_precacc_060.txt.gz
Total_Precipitation_Accumulation
0.00 0.00 0.00 0.00 0.00 0.00 0.00 0.00 0.00 0.00 0.00 0.00 0.00 0.00 0.00 0.00 0.00 0.00 0.00 0.00 0.00 0.00 0.00 0.00 0.00 0.00 0.00 0.03 0.07 0.10 0.17 0.24 0.21 0.25 0.40 0.45 0.31 0.28 0.23 0.21 0.16 0.12 0.16
0.01 0.00 0.00 0.00 0.00 0.00 0.00 0.00 0.00 0.00 0.00 0.00 0.00 0.00 0.00 0.00 0.00 0.00 0.00 0.00 0.00 0.00 0.00 0.00 0.00 0.00 0.00 0.00 0.01 0.04 0.08 0.12 0.21 0.29 0.33 0.37 0.35 0.27 0.25 0.22 0.21 0.19 0.16
0.04 0.02 0.00 0.00 0.00 0.00 0.00 0.00 0.00 0.00 0.00 0.00 0.00 0.00 0.00 0.00 0.00 0.00 0.00 0.00 0.00 0.00 0.00 0.00 0.00 0.00 0.00 0.00 0.00 0.00 0.00 0.01 0.06 0.15 0.21 0.31 0.43 0.35 0.33 0.31 0.28 0.30 0.26
0.09 0.04 0.01 0.00 0.00 0.00 0.00 0.00 0.00 0.00 0.00 0.00 0.00 0.00 0.00 0.00 0.00 0.00 0.00 0.00 0.00 0.00 0.00 0.00 0.00 0.00 0.00 0.00 0.00 0.00 0.00 0.00 0.01 0.06 0.11 0.27 0.49 0.43 0.42 0.34 0.36 0.42 0.41
0.08 0.04 0.02 0.00 0.00 0.00 0.00 0.00 0.00 0.00 0.00 0.00 0.00 0.00 0.00 0.00 0.00 0.00 0.00 0.00 0.00 0.00 0.00 0.00 0.00 0.00 0.00 0.00 0.00 0.00 0.00 0.00 0.00 0.02 0.07 0.12 0.22 0.60 0.78 0.65 0.43 0.45 0.53
0.08 0.02 0.01 0.01 0.00 0.00 0.00 0.00 0.00 0.00 0.00 0.00 0.00 0.00 0.00 0.00 0.00 0.00 0.00 0.00 0.00 0.00 0.00 0.00 0.00 0.00 0.00 0.00 0.00 0.00 0.00 0.00 0.01 0.01 0.03 0.06 0.10 0.17 0.30 0.55 0.78 0.81 0.73
0.13 0.11 0.07 0.10 0.01 0.00 0.00 0.00 0.00 0.00 0.00 0.00 0.00 0.00 0.00 0.00 0.00 0.00 0.00 0.00 0.00 0.00 0.00 0.00 0.00 0.00 0.00 0.00 0.00 0.00 0.00 0.00 0.00 0.00 0.02 0.02 0.02 0.04 0.17 0.35 0.65 0.94 1.19
0.10 0.06 0.09 0.16 0.05 0.05 0.00 0.00 0.00 0.00 0.00 0.00 0.00 0.00 0.00 0.00 0.00 0.00 0.00 0.00 0.00 0.00 0.00 0.00 0.00 0.00 0.00 0.00 0.00 0.00 0.01 0.01 0.00 0.00 0.00 0.01 0.02 0.02 0.01 0.04 0.22 0.64 0.94
0.20 0.10 0.06 0.08 0.07 0.03 0.00 0.00 0.00 0.00 0.00 0.00 0.00 0.00 0.00 0.00 0.00 0.00 0.00 0.00 0.02 0.01 0.01 0.01 0.01 0.01 0.00 0.00 0.00 0.00 0.00 0.00 0.00 0.00 0.00 0.00 0.01 0.01 0.02 0.03 0.08 0.21 0.48
0.11 0.12 0.09 0.10 0.14 0.12 0.10 0.03 0.00 0.00 0.00 0.00 0.00 0.00 0.00 0.02 0.03 0.02 0.00 0.00 0.00 0.01 0.02 0.01 0.03 0.04 0.05 0.05 0.03 0.01 0.00 0.00 0.00 0.00 0.00 0.00 0.00 0.01 0.03 0.04 0.05 0.08 0.18
0.07 0.05 0.03 0.02 0.03 0.02 0.02 0.03 0.03 0.02 0.03 0.01 0.00 0.00 0.00 0.00 0.02 0.05 0.03 0.01 0.01 0.02 0.02 0.03 0.05 0.08 0.14 0.13 0.12 0.10 0.07 0.03 0.01 0.00 0.00 0.00 0.00 0.01 0.02 0.04 0.04 0.06 0.15
0.07 0.04 0.04 0.03 0.03 0.03 0.04 0.12 0.20 0.14 0.14 0.07 0.01 0.00 0.00 0.01 0.02 0.04 0.04 0.01 0.03 0.04 0.05 0.12 0.20 0.15 0.15 0.14 0.15 0.19 0.12 0.07 0.04 0.03 0.02 0.01 0.00 0.00 0.01 0.02 0.03 0.05 0.14
0.05 0.08 0.10 0.08 0.06 0.10 0.18 0.18 0.14 0.13 0.12 0.12 0.08 0.05 0.03 0.03 0.05 0.07 0.10 0.10 0.15 0.06 0.08 0.11 0.15 0.15 0.22 0.39 0.35 0.26 0.16 0.18 0.14 0.05 0.02 0.03 0.03 0.01 0.01 0.02 0.04 0.05 0.09
0.17 0.27 0.30 0.26 0.21 0.17 0.16 0.21 0.29 0.32 0.26 0.16 0.12 0.16 0.18 0.21 0.24 0.28 0.35 0.42 0.34 0.15 0.11 0.11 0.05 0.10 0.13 0.14 0.26 0.28 0.16 0.14 0.16 0.16 0.11 0.05 0.01 0.00 0.01 0.01 0.02 0.04 0.06
0.12 0.21 0.27 0.19 0.17 0.20 0.22 0.22 0.19 0.16 0.13 0.16 0.17 0.18 0.17 0.15 0.15 0.16 0.20 0.28 0.54 0.38 0.06 0.04 0.07 0.09 0.13 0.11 0.14 0.21 0.25 0.19 0.15 0.14 0.10 0.07 0.06 0.03 0.01 0.00 0.00 0.01 0.03
0.18 0.16 0.15 0.18 0.17 0.13 0.13 0.14 0.10 0.11 0.14 0.16 0.14 0.09 0.06 0.05 0.04 0.05 0.06 0.07 0.10 0.14 0.09 0.00 0.00 0.00 0.01 0.03 0.05 0.07 0.13 0.19 0.13 0.14 0.17 0.11 0.04 0.07 0.08 0.05 0.01 0.00 0.00
0.09 0.08 0.07 0.10 0.13 0.17 0.22 0.21 0.16 0.13 0.12 0.08 0.06 0.05 0.03 0.02 0.02 0.01 0.01 0.00 0.00 0.01 0.01 0.00 0.00 0.00 0.00 0.00 0.00 0.00 0.00 0.02 0.04 0.04 0.13 0.19 0.12 0.09 0.10 0.11 0.09 0.04 0.00
0.06 0.06 0.08 0.10 0.14 0.17 0.17 0.14 0.11 0.07 0.04 0.03 0.02 0.01 0.01 0.00 0.00 0.00 0.00 0.00 0.00 0.00 0.00 0.00 0.00 0.00 0.00 0.00 0.00 0.00 0.00 0.00 0.00 0.00 0.02 0.07 0.13 0.11 0.10 0.08 0.06 0.08 0.08
0.05 0.06 0.06 0.08 0.09 0.09 0.12 0.12 0.07 0.04 0.02 0.00 0.00 0.01 0.00 0.00 0.00 0.00 0.00 0.00 0.00 0.01 0.01 0.04 0.01 0.00 0.00 0.00 0.00 0.01 0.01 0.01 0.00 0.00 0.00 0.01 0.01 0.04 0.05 0.05 0.04 0.06 0.10
0.04 0.03 0.03 0.04 0.06 0.08 0.07 0.06 0.04 0.01 0.00 0.00 0.00 0.00 0.00 0.00 0.00 0.00 0.01 0.01 0.01 0.02 0.01 0.03 0.02 0.02 0.02 0.02 0.03 0.03 0.03 0.02 0.01 0.00 0.00 0.00 0.01 0.02 0.01 0.02 0.01 0.01 0.05
0.02 0.01 0.03 0.07 0.06 0.04 0.04 0.03 0.01 0.00 0.00 0.00 0.00 0.00 0.00 0.00 0.00 0.01 0.01 0.01 0.02 0.04 0.05 0.07 0.06 0.05 0.04 0.03 0.05 0.05 0.07 0.03 0.02 0.03 0.03 0.02 0.03 0.03 0.03 0.02 0.01 0.01 0.01
0.03 0.08 0.10 0.08 0.06 0.04 0.03 0.01 0.00 0.00 0.00 0.00 0.00 0.00 0.00 0.00 0.00 0.00 0.01 0.01 0.03 0.10 0.16 0.13 0.11 0.10 0.07 0.09 0.11 0.12 0.12 0.11 0.07 0.05 0.08 0.06 0.06 0.05 0.04 0.07 0.14 0.13 0.09
0.16 0.15 0.15 0.10 0.04 0.01 0.01 0.00 0.00 0.00 0.00 0.00 0.00 0.00 0.00 0.00 0.00 0.00 0.01 0.01 0.02 0.03 0.11 0.17 0.21 0.14 0.15 0.13 0.15 0.13 0.13 0.16 0.12 0.04 0.05 0.06 0.05 0.06 0.03 0.01 0.04 0.03 0.02
0.17 0.11 0.03 0.01 0.01 0.00 0.00 0.00 0.00 0.00 0.00 0.00 0.00 0.00 0.00 0.00 0.00 0.02 0.09 0.09 0.05 0.03 0.04 0.06 0.12 0.10 0.10 0.11 0.14 0.14 0.16 0.15 0.08 0.02 0.04 0.10 0.04 0.05 0.04 0.02 0.01 0.01 0.01
0.01 0.00 0.00 0.00 0.01 0.00 0.00 0.00 0.00 0.00 0.01 0.01 0.00 0.00 0.01 0.01 0.02 0.08 0.14 0.13 0.07 0.05 0.05 0.06 0.09 0.11 0.11 0.09 0.11 0.22 0.22 0.25 0.21 0.07 0.06 0.11 0.06 0.06 0.05 0.03 0.02 0.00 0.00
0.00 0.00 0.00 0.00 0.00 0.01 0.01 0.00 0.01 0.02 0.02 0.02 0.02 0.01 0.01 0.04 0.11 0.15 0.25 0.23 0.21 0.08 0.09 0.10 0.09 0.08 0.07 0.07 0.06 0.12 0.19 0.29 0.23 0.17 0.05 0.22 0.09 0.13 0.18 0.08 0.05 0.03 0.02

GFSMA_prec_precacc_063.txt.gz
Total_Precipitation_Accumulation
0.00 0.00 0.00 0.00 0.00 0.00 0.00 0.00 0.00 0.00 0.00 0.00 0.00 0.00 0.00 0.00 0.00 0.00 0.00 0.00 0.00 0.00 0.00 0.00 0.00 0.00 0.00 0.03 0.07 0.10 0.17 0.24 0.21 0.25 0.40 0.45 0.31 0.28 0.23 0.21 0.16 0.12 0.16
0.01 0.00 0.00 0.00 0.00 0.00 0.00 0.00 0.00 0.00 0.00 0.00 0.00 0.00 0.00 0.00 0.00 0.00 0.00 0.00 0.00 0.00 0.00 0.00 0.00 0.00 0.00 0.00 0.01 0.04 0.08 0.12 0.21 0.29 0.33 0.37 0.35 0.27 0.25 0.22 0.21 0.19 0.16
0.04 0.02 0.00 0.00 0.00 0.00 0.00 0.00 0.00 0.00 0.00 0.00 0.00 0.00 0.00 0.00 0.00 0.00 0.00 0.00 0.00 0.00 0.00 0.00 0.00 0.00 0.00 0.00 0.00 0.00 0.00 0.01 0.06 0.15 0.21 0.31 0.43 0.35 0.33 0.31 0.28 0.30 0.26
0.09 0.04 0.01 0.00 0.00 0.00 0.00 0.00 0.00 0.00 0.00 0.00 0.00 0.00 0.00 0.00 0.00 0.00 0.00 0.00 0.00 0.00 0.00 0.00 0.00 0.00 0.00 0.00 0.00 0.00 0.00 0.00 0.01 0.06 0.11 0.27 0.49 0.43 0.42 0.34 0.36 0.42 0.41
0.08 0.04 0.02 0.00 0.00 0.00 0.00 0.00 0.00 0.00 0.00 0.00 0.00 0.00 0.00 0.00 0.00 0.00 0.00 0.00 0.00 0.00 0.00 0.00 0.00 0.00 0.00 0.00 0.00 0.00 0.00 0.00 0.00 0.02 0.07 0.12 0.22 0.60 0.78 0.65 0.43 0.45 0.53
0.08 0.02 0.01 0.01 0.00 0.00 0.00 0.00 0.00 0.00 0.00 0.00 0.00 0.00 0.00 0.00 0.00 0.00 0.00 0.00 0.00 0.00 0.00 0.00 0.00 0.00 0.00 0.00 0.00 0.00 0.00 0.00 0.01 0.01 0.03 0.06 0.10 0.17 0.30 0.55 0.78 0.81 0.73
0.13 0.11 0.07 0.10 0.01 0.01 0.00 0.00 0.00 0.00 0.00 0.00 0.00 0.00 0.00 0.00 0.00 0.00 0.00 0.00 0.00 0.00 0.00 0.00 0.00 0.00 0.00 0.00 0.00 0.00 0.00 0.00 0.00 0.00 0.02 0.02 0.02 0.04 0.17 0.35 0.65 0.94 1.19
0.11 0.07 0.13 0.26 0.12 0.09 0.01 0.00 0.00 0.00 0.00 0.00 0.00 0.00 0.00 0.00 0.00 0.00 0.00 0.00 0.00 0.00 0.00 0.00 0.00 0.00 0.00 0.00 0.00 0.00 0.01 0.01 0.00 0.00 0.00 0.01 0.02 0.02 0.01 0.04 0.22 0.64 0.94
0.20 0.13 0.16 0.20 0.15 0.08 0.03 0.00 0.00 0.00 0.00 0.00 0.00 0.00 0.00 0.00 0.00 0.00 0.00 0.00 0.02 0.01 0.01 0.01 0.01 0.01 0.00 0.00 0.00 0.00 0.00 0.00 0.00 0.00 0.00 0.00 0.01 0.01 0.02 0.03 0.08 0.21 0.48
0.11 0.12 0.15 0.16 0.18 0.13 0.11 0.05 0.02 0.01 0.03 0.06 0.05 0.01 0.01 0.02 0.03 0.02 0.00 0.00 0.00 0.01 0.02 0.01 0.03 0.04 0.05 0.05 0.03 0.01 0.00 0.00 0.00 0.00 0.00 0.00 0.00 0.01 0.03 0.04 0.05 0.08 0.18
0.07 0.05 0.03 0.03 0.03 0.03 0.02 0.04 0.05 0.12 0.19 0.21 0.18 0.10 0.09 0.09 0.06 0.05 0.03 0.01 0.01 0.02 0.02 0.03 0.05 0.08 0.14 0.13 0.12 0.10 0.07 0.03 0.01 0.00 0.00 0.00 0.00 0.01 0.02 0.04 0.04 0.06 0.15
0.08 0.07 0.05 0.03 0.03 0.03 0.04 0.12 0.27 0.30 0.27 0.25 0.25 0.21 0.12 0.09 0.05 0.05 0.04 0.01 0.03 0.04 0.05 0.12 0.20 0.15 0.15 0.14 0.15 0.19 0.12 0.07 0.04 0.03 0.02 0.01 0.00 0.00 0.01 0.02 0.03 0.05 0.14
0.06 0.13 0.18 0.11 0.06 0.11 0.19 0.19 0.16 0.17 0.18 0.20 0.20 0.20 0.13 0.07 0.08 0.09 0.11 0.10 0.15 0.06 0.08 0.11 0.15 0.15 0.22 0.39 0.35 0.26 0.16 0.18 0.14 0.05 0.02 0.03 0.03 0.01 0.01 0.02 0.04 0.05 0.09
0.23 0.39 0.48 0.40 0.27 0.18 0.16 0.21 0.30 0.33 0.29 0.25 0.19 0.20 0.21 0.25 0.28 0.30 0.36 0.42 0.34 0.15 0.11 0.11 0.05 0.10 0.13 0.14 0.26 0.28 0.16 0.14 0.16 0.16 0.11 0.05 0.01 0.00 0.01 0.01 0.02 0.04 0.06
0.17 0.32 0.44 0.28 0.20 0.20 0.22 0.23 0.20 0.20 0.19 0.18 0.18 0.20 0.18 0.16 0.16 0.17 0.20 0.28 0.54 0.38 0.06 0.04 0.07 0.09 0.13 0.11 0.14 0.21 0.25 0.19 0.15 0.14 0.10 0.07 0.06 0.03 0.01 0.00 0.00 0.01 0.03
0.40 0.24 0.22 0.20 0.17 0.14 0.14 0.16 0.18 0.18 0.17 0.16 0.15 0.09 0.06 0.05 0.05 0.05 0.06 0.07 0.10 0.14 0.09 0.00 0.00 0.00 0.01 0.03 0.05 0.07 0.13 0.19 0.13 0.14 0.17 0.11 0.04 0.07 0.08 0.05 0.01 0.00 0.00
0.19 0.13 0.09 0.10 0.14 0.17 0.23 0.24 0.20 0.16 0.13 0.09 0.06 0.05 0.03 0.02 0.02 0.01 0.01 0.00 0.00 0.01 0.01 0.00 0.00 0.00 0.00 0.00 0.00 0.00 0.00 0.02 0.04 0.04 0.13 0.19 0.12 0.09 0.10 0.11 0.09 0.04 0.00
0.14 0.09 0.09 0.11 0.14 0.17 0.17 0.15 0.12 0.08 0.05 0.04 0.02 0.02 0.01 0.00 0.00 0.00 0.00 0.00 0.00 0.00 0.00 0.00 0.00 0.00 0.00 0.00 0.00 0.00 0.00 0.00 0.00 0.00 0.02 0.07 0.13 0.11 0.10 0.08 0.06 0.08 0.08
0.06 0.06 0.06 0.09 0.10 0.09 0.13 0.14 0.11 0.06 0.02 0.01 0.01 0.01 0.00 0.00 0.00 0.00 0.00 0.00 0.00 0.01 0.01 0.04 0.02 0.00 0.00 0.00 0.00 0.01 0.01 0.01 0.00 0.00 0.00 0.01 0.01 0.04 0.05 0.05 0.04 0.06 0.10
0.04 0.03 0.03 0.04 0.07 0.10 0.10 0.07 0.04 0.02 0.00 0.00 0.00 0.00 0.00 0.00 0.00 0.00 0.01 0.01 0.01 0.02 0.02 0.03 0.03 0.02 0.02 0.02 0.03 0.03 0.04 0.03 0.02 0.01 0.00 0.01 0.01 0.02 0.01 0.02 0.01 0.01 0.05
0.02 0.01 0.03 0.08 0.07 0.05 0.04 0.03 0.01 0.00 0.00 0.00 0.00 0.00 0.00 0.00 0.00 0.01 0.01 0.01 0.02 0.04 0.05 0.08 0.06 0.05 0.04 0.03 0.05 0.05 0.09 0.04 0.03 0.03 0.03 0.02 0.03 0.03 0.03 0.02 0.01 0.01 0.01
0.03 0.08 0.10 0.08 0.06 0.04 0.03 0.01 0.00 0.00 0.00 0.00 0.00 0.00 0.00 0.00 0.00 0.00 0.01 0.01 0.03 0.10 0.16 0.13 0.11 0.10 0.07 0.09 0.12 0.14 0.15 0.14 0.11 0.06 0.08 0.06 0.06 0.05 0.04 0.07 0.14 0.13 0.09
0.16 0.15 0.15 0.10 0.04 0.01 0.01 0.00 0.00 0.00 0.00 0.00 0.00 0.00 0.00 0.00 0.00 0.00 0.01 0.01 0.02 0.03 0.11 0.17 0.21 0.15 0.15 0.14 0.17 0.16 0.15 0.20 0.17 0.05 0.07 0.06 0.05 0.06 0.03 0.01 0.04 0.03 0.02
0.17 0.11 0.03 0.01 0.01 0.00 0.00 0.00 0.00 0.00 0.00 0.00 0.00 0.00 0.00 0.00 0.00 0.02 0.09 0.09 0.05 0.03 0.04 0.06 0.12 0.10 0.11 0.11 0.16 0.16 0.18 0.17 0.10 0.03 0.05 0.10 0.04 0.05 0.04 0.02 0.01 0.01 0.01
0.01 0.00 0.00 0.00 0.01 0.00 0.00 0.00 0.00 0.00 0.01 0.01 0.00 0.00 0.01 0.01 0.02 0.08 0.14 0.13 0.07 0.05 0.05 0.06 0.09 0.11 0.11 0.09 0.12 0.24 0.25 0.28 0.23 0.07 0.06 0.11 0.06 0.06 0.05 0.03 0.02 0.00 0.00
0.00 0.00 0.00 0.00 0.00 0.01 0.01 0.00 0.01 0.02 0.02 0.02 0.02 0.01 0.01 0.04 0.11 0.15 0.25 0.23 0.21 0.08 0.09 0.10 0.09 0.08 0.07 0.07 0.07 0.14 0.22 0.36 0.29 0.21 0.05 0.22 0.09 0.13 0.18 0.08 0.05 0.03 0.02

GFSMA_prec_precacc_066.txt.gz
Total_Precipitation_Accumulation
0.00 0.00 0.00 0.00 0.00 0.00 0.00 0.00 0.00 0.00 0.00 0.00 0.00 0.00 0.00 0.00 0.00 0.00 0.00 0.00 0.00 0.00 0.00 0.00 0.00 0.00 0.00 0.03 0.07 0.10 0.17 0.24 0.21 0.25 0.40 0.45 0.31 0.28 0.23 0.21 0.16 0.12 0.16
0.01 0.00 0.00 0.00 0.00 0.00 0.00 0.00 0.00 0.00 0.00 0.00 0.00 0.00 0.00 0.00 0.00 0.00 0.00 0.00 0.00 0.00 0.00 0.00 0.00 0.00 0.00 0.00 0.01 0.04 0.08 0.12 0.21 0.29 0.33 0.37 0.35 0.27 0.25 0.22 0.21 0.19 0.16
0.04 0.02 0.00 0.00 0.00 0.00 0.00 0.00 0.00 0.00 0.00 0.00 0.00 0.00 0.00 0.00 0.00 0.00 0.00 0.00 0.00 0.00 0.00 0.00 0.00 0.00 0.00 0.00 0.00 0.00 0.00 0.01 0.06 0.15 0.21 0.31 0.43 0.35 0.33 0.31 0.28 0.30 0.26
0.09 0.04 0.01 0.00 0.00 0.00 0.00 0.00 0.00 0.00 0.00 0.00 0.00 0.00 0.00 0.00 0.00 0.00 0.00 0.00 0.00 0.00 0.00 0.00 0.00 0.00 0.00 0.00 0.00 0.00 0.00 0.00 0.01 0.06 0.11 0.27 0.49 0.43 0.42 0.34 0.36 0.42 0.41
0.08 0.04 0.02 0.00 0.00 0.00 0.00 0.00 0.00 0.00 0.00 0.00 0.00 0.00 0.00 0.00 0.00 0.00 0.00 0.00 0.00 0.00 0.00 0.00 0.00 0.00 0.00 0.00 0.00 0.00 0.00 0.00 0.00 0.02 0.07 0.12 0.22 0.60 0.78 0.65 0.43 0.45 0.53
0.08 0.02 0.01 0.01 0.00 0.00 0.00 0.00 0.00 0.00 0.00 0.00 0.00 0.00 0.00 0.00 0.00 0.00 0.00 0.00 0.00 0.00 0.00 0.00 0.00 0.00 0.00 0.00 0.00 0.00 0.00 0.00 0.01 0.01 0.03 0.06 0.10 0.17 0.30 0.55 0.78 0.81 0.73
0.13 0.11 0.07 0.10 0.01 0.01 0.00 0.00 0.00 0.00 0.00 0.00 0.00 0.00 0.00 0.00 0.00 0.00 0.00 0.00 0.00 0.00 0.00 0.00 0.00 0.00 0.00 0.00 0.00 0.00 0.00 0.00 0.00 0.00 0.02 0.02 0.02 0.04 0.17 0.35 0.65 0.94 1.19
0.11 0.07 0.13 0.26 0.12 0.09 0.02 0.02 0.00 0.00 0.00 0.00 0.00 0.00 0.00 0.00 0.00 0.00 0.00 0.00 0.00 0.00 0.00 0.00 0.00 0.00 0.00 0.00 0.00 0.00 0.01 0.01 0.00 0.00 0.00 0.01 0.02 0.02 0.01 0.04 0.22 0.64 0.94
0.20 0.13 0.16 0.20 0.15 0.08 0.03 0.01 0.01 0.00 0.00 0.00 0.00 0.01 0.01 0.00 0.00 0.00 0.00 0.00 0.02 0.01 0.01 0.01 0.01 0.01 0.00 0.00 0.00 0.00 0.00 0.00 0.00 0.00 0.00 0.00 0.01 0.01 0.02 0.03 0.08 0.21 0.48
0.11 0.12 0.15 0.16 0.18 0.13 0.12 0.07 0.02 0.01 0.03 0.06 0.09 0.08 0.05 0.04 0.05 0.05 0.01 0.00 0.00 0.01 0.02 0.01 0.03 0.04 0.05 0.05 0.03 0.01 0.00 0.00 0.00 0.00 0.00 0.00 0.00 0.01 0.03 0.04 0.05 0.08 0.18
0.07 0.05 0.04 0.03 0.03 0.04 0.06 0.07 0.07 0.13 0.20 0.24 0.25 0.16 0.13 0.14 0.15 0.16 0.08 0.02 0.01 0.02 0.02 0.03 0.05 0.08 0.14 0.13 0.12 0.10 0.07 0.03 0.01 0.00 0.00 0.00 0.00 0.01 0.02 0.04 0.04 0.06 0.15
0.08 0.07 0.05 0.04 0.04 0.07 0.07 0.14 0.29 0.32 0.29 0.27 0.27 0.24 0.15 0.13 0.13 0.13 0.08 0.02 0.03 0.04 0.05 0.12 0.20 0.15 0.15 0.14 0.15 0.19 0.12 0.07 0.04 0.03 0.02 0.01 0.00 0.00 0.01 0.02 0.03 0.05 0.14
0.06 0.15 0.22 0.19 0.12 0.14 0.25 0.20 0.17 0.19 0.20 0.23 0.25 0.30 0.25 0.12 0.09 0.11 0.12 0.10 0.15 0.06 0.08 0.11 0.15 0.15 0.22 0.39 0.35 0.26 0.16 0.18 0.14 0.05 0.02 0.03 0.03 0.01 0.01 0.02 0.04 0.05 0.09
0.24 0.39 0.52 0.54 0.43 0.27 0.21 0.23 0.30 0.34 0.31 0.28 0.29 0.29 0.23 0.25 0.28 0.30 0.36 0.43 0.34 0.15 0.11 0.11 0.05 0.10 0.13 0.14 0.26 0.28 0.16 0.14 0.16 0.16 0.11 0.05 0.01 0.00 0.01 0.01 0.02 0.04 0.06
0.23 0.37 0.48 0.39 0.38 0.29 0.23 0.23 0.21 0.20 0.23 0.28 0.27 0.23 0.18 0.16 0.16 0.17 0.20 0.28 0.54 0.38 0.06 0.04 0.07 0.09 0.13 0.11 0.14 0.21 0.25 0.19 0.15 0.14 0.10 0.07 0.06 0.03 0.01 0.00 0.00 0.01 0.03
0.67 0.40 0.37 0.39 0.29 0.16 0.15 0.16 0.18 0.19 0.19 0.18 0.16 0.09 0.07 0.06 0.05 0.05 0.06 0.07 0.10 0.14 0.09 0.00 0.00 0.00 0.01 0.03 0.05 0.07 0.13 0.19 0.13 0.14 0.17 0.11 0.04 0.07 0.08 0.05 0.01 0.00 0.00
0.34 0.16 0.16 0.20 0.18 0.19 0.24 0.24 0.21 0.16 0.13 0.10 0.07 0.06 0.04 0.03 0.02 0.01 0.01 0.00 0.00 0.01 0.01 0.00 0.00 0.00 0.00 0.00 0.00 0.00 0.00 0.02 0.04 0.04 0.13 0.19 0.12 0.09 0.10 0.11 0.09 0.04 0.00
0.23 0.16 0.19 0.16 0.16 0.18 0.18 0.15 0.12 0.09 0.06 0.05 0.04 0.03 0.02 0.01 0.00 0.00 0.00 0.00 0.00 0.00 0.00 0.00 0.00 0.00 0.00 0.00 0.00 0.00 0.00 0.00 0.00 0.00 0.03 0.08 0.14 0.11 0.10 0.08 0.06 0.08 0.08
0.11 0.09 0.08 0.10 0.10 0.10 0.14 0.15 0.11 0.08 0.05 0.03 0.01 0.01 0.01 0.00 0.00 0.00 0.00 0.00 0.00 0.01 0.01 0.04 0.02 0.00 0.00 0.00 0.00 0.01 0.01 0.01 0.00 0.01 0.01 0.02 0.02 0.04 0.05 0.05 0.04 0.06 0.10
0.07 0.05 0.05 0.05 0.08 0.11 0.11 0.08 0.05 0.02 0.01 0.01 0.00 0.00 0.00 0.00 0.00 0.00 0.01 0.01 0.01 0.02 0.02 0.03 0.03 0.02 0.02 0.02 0.03 0.03 0.04 0.03 0.02 0.02 0.02 0.01 0.02 0.02 0.02 0.02 0.01 0.01 0.05
0.04 0.02 0.04 0.08 0.07 0.06 0.05 0.03 0.01 0.00 0.00 0.00 0.00 0.00 0.00 0.00 0.00 0.01 0.01 0.01 0.02 0.04 0.05 0.08 0.06 0.05 0.04 0.03 0.05 0.05 0.09 0.05 0.04 0.04 0.05 0.04 0.06 0.06 0.05 0.04 0.02 0.01 0.01
0.04 0.08 0.11 0.08 0.06 0.04 0.05 0.02 0.00 0.00 0.00 0.00 0.00 0.00 0.00 0.00 0.00 0.00 0.01 0.01 0.03 0.10 0.16 0.13 0.11 0.10 0.07 0.09 0.12 0.14 0.15 0.15 0.12 0.06 0.09 0.08 0.08 0.07 0.05 0.08 0.14 0.13 0.09
0.17 0.15 0.15 0.11 0.04 0.01 0.01 0.00 0.00 0.00 0.00 0.00 0.00 0.00 0.00 0.00 0.00 0.00 0.01 0.01 0.02 0.03 0.11 0.17 0.21 0.15 0.15 0.14 0.17 0.16 0.16 0.21 0.18 0.07 0.10 0.09 0.06 0.08 0.05 0.02 0.04 0.03 0.02
0.17 0.11 0.03 0.01 0.01 0.00 0.00 0.00 0.00 0.00 0.00 0.00 0.00 0.00 0.00 0.00 0.00 0.02 0.09 0.09 0.05 0.03 0.04 0.06 0.12 0.10 0.11 0.11 0.16 0.17 0.19 0.18 0.11 0.04 0.07 0.13 0.05 0.05 0.04 0.02 0.01 0.01 0.01
0.01 0.00 0.00 0.00 0.01 0.00 0.00 0.00 0.00 0.00 0.01 0.01 0.00 0.00 0.01 0.01 0.02 0.08 0.14 0.13 0.07 0.05 0.05 0.06 0.09 0.11 0.11 0.09 0.12 0.24 0.25 0.29 0.24 0.07 0.06 0.14 0.08 0.07 0.05 0.03 0.02 0.00 0.00
0.00 0.00 0.00 0.00 0.00 0.01 0.01 0.00 0.01 0.02 0.02 0.02 0.02 0.01 0.01 0.04 0.11 0.15 0.25 0.23 0.21 0.08 0.09 0.10 0.09 0.08 0.07 0.07 0.07 0.14 0.22 0.38 0.32 0.24 0.07 0.28 0.13 0.16 0.19 0.08 0.05 0.03 0.02

GFSMA_prec_precacc_069.txt.gz
Total_Precipitation_Accumulation
0.00 0.00 0.00 0.00 0.00 0.00 0.00 0.00 0.00 0.00 0.00 0.00 0.00 0.00 0.00 0.00 0.00 0.00 0.00 0.00 0.00 0.00 0.00 0.00 0.00 0.00 0.00 0.03 0.07 0.10 0.17 0.24 0.21 0.25 0.40 0.45 0.31 0.28 0.23 0.21 0.16 0.12 0.16
0.01 0.00 0.00 0.00 0.00 0.00 0.00 0.00 0.00 0.00 0.00 0.00 0.00 0.00 0.00 0.00 0.00 0.00 0.00 0.00 0.00 0.00 0.00 0.00 0.00 0.00 0.00 0.00 0.01 0.04 0.08 0.12 0.21 0.29 0.33 0.37 0.35 0.27 0.25 0.22 0.21 0.19 0.16
0.04 0.02 0.00 0.00 0.00 0.00 0.00 0.00 0.00 0.00 0.00 0.00 0.00 0.00 0.00 0.00 0.00 0.00 0.00 0.00 0.00 0.00 0.00 0.00 0.00 0.00 0.00 0.00 0.00 0.00 0.00 0.01 0.06 0.15 0.21 0.31 0.43 0.35 0.33 0.31 0.28 0.30 0.26
0.09 0.04 0.01 0.00 0.00 0.00 0.00 0.00 0.00 0.00 0.00 0.00 0.00 0.00 0.00 0.00 0.00 0.00 0.00 0.00 0.00 0.00 0.00 0.00 0.00 0.00 0.00 0.00 0.00 0.00 0.00 0.00 0.01 0.06 0.11 0.27 0.49 0.43 0.42 0.34 0.36 0.42 0.41
0.08 0.04 0.02 0.00 0.00 0.00 0.00 0.00 0.00 0.00 0.00 0.00 0.00 0.00 0.00 0.00 0.00 0.00 0.00 0.00 0.00 0.00 0.00 0.00 0.00 0.00 0.00 0.00 0.00 0.00 0.00 0.00 0.00 0.02 0.07 0.12 0.22 0.60 0.78 0.65 0.43 0.45 0.53
0.08 0.02 0.01 0.01 0.00 0.00 0.00 0.00 0.00 0.00 0.00 0.00 0.00 0.00 0.00 0.00 0.00 0.00 0.00 0.00 0.00 0.00 0.00 0.00 0.00 0.00 0.00 0.00 0.00 0.00 0.00 0.00 0.01 0.01 0.03 0.06 0.10 0.17 0.30 0.55 0.78 0.81 0.73
0.13 0.11 0.07 0.10 0.01 0.01 0.00 0.00 0.00 0.00 0.00 0.00 0.00 0.00 0.00 0.00 0.00 0.00 0.00 0.00 0.00 0.00 0.00 0.00 0.00 0.00 0.00 0.00 0.00 0.00 0.00 0.00 0.00 0.00 0.02 0.02 0.02 0.04 0.17 0.35 0.65 0.94 1.19
0.11 0.07 0.13 0.26 0.12 0.09 0.02 0.02 0.00 0.00 0.00 0.00 0.00 0.00 0.00 0.00 0.00 0.00 0.00 0.00 0.00 0.00 0.00 0.00 0.00 0.00 0.00 0.00 0.00 0.00 0.01 0.01 0.00 0.00 0.00 0.01 0.02 0.02 0.01 0.04 0.22 0.64 0.94
0.20 0.13 0.16 0.20 0.15 0.08 0.03 0.01 0.01 0.00 0.00 0.00 0.00 0.01 0.01 0.01 0.00 0.00 0.00 0.00 0.02 0.01 0.01 0.01 0.01 0.01 0.00 0.00 0.00 0.00 0.00 0.00 0.00 0.00 0.00 0.00 0.01 0.01 0.02 0.03 0.08 0.21 0.48
0.11 0.12 0.15 0.16 0.18 0.13 0.12 0.07 0.02 0.02 0.05 0.08 0.10 0.08 0.07 0.05 0.06 0.05 0.01 0.00 0.00 0.02 0.02 0.01 0.03 0.04 0.05 0.05 0.03 0.01 0.00 0.00 0.00 0.00 0.00 0.00 0.00 0.01 0.03 0.04 0.05 0.08 0.18
0.07 0.05 0.04 0.03 0.03 0.04 0.06 0.07 0.07 0.14 0.22 0.26 0.27 0.19 0.14 0.15 0.16 0.18 0.08 0.03 0.02 0.02 0.02 0.03 0.05 0.08 0.14 0.13 0.12 0.10 0.07 0.03 0.01 0.00 0.00 0.00 0.00 0.01 0.02 0.04 0.04 0.06 0.15
0.08 0.07 0.05 0.04 0.04 0.07 0.07 0.14 0.29 0.33 0.30 0.28 0.28 0.25 0.18 0.18 0.17 0.17 0.10 0.02 0.03 0.04 0.05 0.12 0.20 0.15 0.15 0.14 0.15 0.19 0.12 0.07 0.04 0.03 0.02 0.01 0.00 0.00 0.01 0.02 0.03 0.05 0.14
0.06 0.15 0.22 0.19 0.13 0.16 0.28 0.26 0.20 0.21 0.22 0.24 0.26 0.31 0.26 0.17 0.14 0.13 0.13 0.10 0.15 0.06 0.08 0.11 0.15 0.15 0.22 0.39 0.35 0.26 0.16 0.18 0.14 0.05 0.02 0.03 0.03 0.01 0.01 0.02 0.04 0.05 0.09
0.24 0.39 0.52 0.55 0.47 0.35 0.33 0.35 0.37 0.38 0.32 0.28 0.30 0.31 0.29 0.28 0.30 0.31 0.36 0.43 0.34 0.15 0.11 0.11 0.05 0.10 0.13 0.14 0.26 0.28 0.16 0.14 0.16 0.16 0.11 0.05 0.01 0.00 0.01 0.01 0.02 0.04 0.06
0.28 0.39 0.49 0.40 0.40 0.36 0.39 0.35 0.25 0.21 0.23 0.29 0.28 0.26 0.21 0.17 0.16 0.17 0.20 0.28 0.54 0.38 0.06 0.04 0.07 0.09 0.13 0.11 0.14 0.21 0.25 0.19 0.15 0.14 0.10 0.07 0.06 0.03 0.01 0.00 0.00 0.01 0.03
0.76 0.49 0.51 0.47 0.34 0.24 0.23 0.20 0.19 0.19 0.19 0.18 0.16 0.10 0.07 0.06 0.05 0.05 0.06 0.07 0.10 0.14 0.09 0.00 0.00 0.00 0.01 0.03 0.05 0.07 0.13 0.19 0.13 0.14 0.17 0.11 0.04 0.07 0.08 0.05 0.01 0.00 0.00
0.95 0.79 0.50 0.42 0.23 0.27 0.30 0.26 0.21 0.16 0.13 0.10 0.07 0.07 0.04 0.03 0.02 0.01 0.01 0.00 0.00 0.01 0.01 0.00 0.00 0.00 0.00 0.00 0.00 0.00 0.00 0.02 0.04 0.04 0.13 0.19 0.12 0.09 0.10 0.11 0.10 0.05 0.01
0.70 0.48 0.31 0.19 0.18 0.19 0.18 0.15 0.12 0.10 0.07 0.05 0.05 0.04 0.03 0.02 0.01 0.02 0.01 0.00 0.00 0.00 0.00 0.00 0.00 0.00 0.00 0.00 0.00 0.00 0.00 0.00 0.00 0.00 0.03 0.08 0.14 0.11 0.11 0.09 0.07 0.09 0.08
0.15 0.10 0.09 0.12 0.14 0.13 0.16 0.17 0.14 0.09 0.06 0.04 0.03 0.03 0.03 0.02 0.01 0.00 0.00 0.00 0.00 0.01 0.01 0.04 0.02 0.00 0.00 0.00 0.00 0.01 0.01 0.01 0.00 0.01 0.01 0.02 0.02 0.04 0.06 0.05 0.05 0.07 0.10
0.13 0.07 0.08 0.09 0.10 0.12 0.13 0.11 0.07 0.03 0.01 0.01 0.00 0.00 0.00 0.01 0.01 0.00 0.01 0.01 0.01 0.02 0.02 0.03 0.03 0.02 0.02 0.02 0.03 0.03 0.04 0.03 0.02 0.02 0.02 0.02 0.02 0.02 0.03 0.05 0.05 0.06 0.10
0.05 0.05 0.07 0.12 0.09 0.07 0.07 0.05 0.02 0.01 0.01 0.01 0.01 0.01 0.00 0.00 0.00 0.01 0.01 0.01 0.02 0.04 0.05 0.08 0.06 0.05 0.04 0.03 0.05 0.05 0.09 0.05 0.04 0.04 0.05 0.04 0.06 0.06 0.06 0.06 0.06 0.05 0.04
0.07 0.11 0.14 0.12 0.08 0.05 0.08 0.04 0.01 0.00 0.00 0.00 0.00 0.00 0.00 0.00 0.00 0.00 0.01 0.01 0.03 0.10 0.16 0.13 0.11 0.10 0.07 0.09 0.12 0.14 0.15 0.15 0.13 0.06 0.10 0.09 0.09 0.08 0.06 0.09 0.15 0.14 0.10
0.19 0.18 0.17 0.12 0.05 0.02 0.03 0.01 0.00 0.00 0.00 0.00 0.00 0.00 0.00 0.00 0.00 0.00 0.01 0.01 0.02 0.03 0.11 0.17 0.21 0.15 0.15 0.14 0.17 0.16 0.16 0.22 0.19 0.07 0.11 0.11 0.07 0.08 0.05 0.05 0.09 0.07 0.04
0.20 0.13 0.05 0.02 0.01 0.01 0.01 0.00 0.00 0.00 0.00 0.00 0.00 0.00 0.00 0.00 0.00 0.02 0.09 0.09 0.05 0.03 0.04 0.06 0.12 0.10 0.11 0.11 0.16 0.17 0.19 0.19 0.11 0.04 0.07 0.14 0.05 0.06 0.05 0.04 0.04 0.03 0.01
0.04 0.02 0.02 0.01 0.01 0.01 0.00 0.00 0.00 0.00 0.01 0.01 0.00 0.00 0.01 0.01 0.02 0.08 0.14 0.13 0.07 0.05 0.05 0.06 0.09 0.11 0.11 0.09 0.12 0.24 0.26 0.30 0.25 0.07 0.06 0.14 0.08 0.08 0.09 0.08 0.07 0.00 0.00
0.02 0.01 0.00 0.00 0.01 0.01 0.01 0.00 0.01 0.02 0.02 0.02 0.02 0.01 0.01 0.04 0.11 0.15 0.25 0.23 0.21 0.08 0.09 0.10 0.09 0.08 0.07 0.07 0.07 0.14 0.23 0.42 0.33 0.26 0.07 0.29 0.15 0.21 0.28 0.12 0.07 0.03 0.02

GFSMA_prec_precacc_075.txt.gz
Total_Precipitation_Accumulation
0.00 0.00 0.00 0.00 0.00 0.00 0.00 0.00 0.00 0.00 0.00 0.00 0.00 0.00 0.00 0.00 0.00 0.00 0.00 0.00 0.00 0.00 0.00 0.00 0.00 0.00 0.00 0.03 0.07 0.10 0.17 0.24 0.21 0.25 0.40 0.45 0.31 0.28 0.23 0.21 0.16 0.12 0.16
0.01 0.00 0.00 0.00 0.00 0.00 0.00 0.00 0.00 0.00 0.00 0.00 0.00 0.00 0.00 0.00 0.00 0.00 0.00 0.00 0.00 0.00 0.00 0.00 0.00 0.00 0.00 0.00 0.01 0.04 0.08 0.12 0.21 0.29 0.33 0.37 0.35 0.27 0.25 0.22 0.21 0.19 0.16
0.04 0.02 0.00 0.00 0.00 0.00 0.00 0.00 0.00 0.00 0.00 0.00 0.00 0.00 0.00 0.00 0.00 0.00 0.00 0.00 0.00 0.00 0.00 0.00 0.00 0.00 0.00 0.00 0.00 0.00 0.00 0.01 0.06 0.15 0.21 0.31 0.43 0.35 0.33 0.31 0.28 0.30 0.26
0.09 0.04 0.01 0.00 0.00 0.00 0.00 0.00 0.00 0.00 0.00 0.00 0.00 0.00 0.00 0.00 0.00 0.00 0.00 0.00 0.00 0.00 0.00 0.00 0.00 0.00 0.00 0.00 0.00 0.00 0.00 0.00 0.01 0.06 0.11 0.27 0.49 0.43 0.42 0.34 0.36 0.42 0.41
0.08 0.04 0.02 0.00 0.00 0.00 0.00 0.00 0.00 0.00 0.00 0.00 0.00 0.00 0.00 0.00 0.00 0.00 0.00 0.00 0.00 0.00 0.00 0.00 0.00 0.00 0.00 0.00 0.00 0.00 0.00 0.00 0.00 0.02 0.07 0.12 0.22 0.60 0.78 0.65 0.43 0.45 0.53
0.08 0.02 0.01 0.01 0.00 0.00 0.00 0.00 0.00 0.00 0.00 0.00 0.00 0.00 0.00 0.00 0.00 0.00 0.00 0.00 0.00 0.00 0.00 0.00 0.00 0.00 0.00 0.00 0.00 0.00 0.00 0.00 0.01 0.01 0.03 0.06 0.10 0.17 0.30 0.55 0.78 0.81 0.73
0.13 0.11 0.07 0.10 0.01 0.01 0.00 0.01 0.01 0.00 0.00 0.00 0.00 0.00 0.00 0.00 0.00 0.00 0.00 0.00 0.00 0.00 0.00 0.00 0.00 0.00 0.00 0.00 0.00 0.00 0.00 0.00 0.00 0.00 0.02 0.02 0.02 0.04 0.17 0.35 0.65 0.94 1.19
0.12 0.08 0.13 0.27 0.14 0.10 0.02 0.02 0.01 0.01 0.01 0.00 0.00 0.00 0.00 0.00 0.00 0.00 0.00 0.00 0.00 0.00 0.00 0.00 0.00 0.00 0.00 0.00 0.00 0.00 0.01 0.01 0.00 0.00 0.00 0.01 0.02 0.02 0.01 0.04 0.22 0.64 0.94
0.21 0.15 0.19 0.23 0.16 0.09 0.05 0.02 0.01 0.00 0.00 0.01 0.01 0.01 0.01 0.01 0.00 0.00 0.00 0.00 0.02 0.01 0.01 0.01 0.01 0.01 0.00 0.00 0.00 0.00 0.00 0.00 0.00 0.00 0.00 0.00 0.01 0.02 0.02 0.03 0.08 0.21 0.48
0.13 0.13 0.15 0.17 0.21 0.16 0.13 0.08 0.02 0.02 0.05 0.09 0.11 0.09 0.08 0.05 0.07 0.06 0.01 0.01 0.01 0.02 0.02 0.01 0.03 0.04 0.05 0.05 0.03 0.01 0.00 0.00 0.00 0.00 0.00 0.00 0.00 0.02 0.04 0.04 0.05 0.08 0.18
0.07 0.06 0.05 0.05 0.04 0.06 0.08 0.11 0.12 0.17 0.24 0.27 0.28 0.20 0.16 0.16 0.17 0.19 0.14 0.05 0.02 0.03 0.03 0.04 0.05 0.08 0.14 0.13 0.12 0.10 0.07 0.03 0.01 0.00 0.00 0.00 0.00 0.01 0.03 0.06 0.05 0.07 0.16
0.08 0.07 0.05 0.05 0.04 0.07 0.08 0.18 0.39 0.37 0.32 0.30 0.31 0.27 0.21 0.21 0.19 0.20 0.16 0.07 0.06 0.06 0.05 0.12 0.20 0.15 0.15 0.14 0.15 0.19 0.12 0.07 0.04 0.03 0.02 0.01 0.00 0.01 0.04 0.06 0.08 0.10 0.18
0.06 0.15 0.22 0.19 0.13 0.16 0.28 0.26 0.23 0.26 0.31 0.33 0.36 0.39 0.33 0.22 0.18 0.18 0.19 0.15 0.16 0.07 0.08 0.11 0.15 0.15 0.22 0.39 0.35 0.26 0.16 0.18 0.14 0.05 0.02 0.03 0.04 0.03 0.04 0.06 0.08 0.09 0.14
0.24 0.39 0.52 0.55 0.47 0.35 0.33 0.38 0.41 0.44 0.44 0.38 0.35 0.34 0.32 0.32 0.35 0.37 0.41 0.46 0.35 0.15 0.11 0.11 0.05 0.10 0.13 0.14 0.26 0.28 0.16 0.14 0.16 0.16 0.11 0.05 0.01 0.01 0.02 0.03 0.04 0.06 0.08
0.28 0.39 0.49 0.40 0.40 0.36 0.40 0.52 0.50 0.40 0.32 0.32 0.30 0.29 0.26 0.23 0.22 0.21 0.23 0.29 0.54 0.39 0.06 0.04 0.07 0.09 0.13 0.11 0.14 0.21 0.25 0.19 0.15 0.14 0.10 0.07 0.06 0.03 0.01 0.01 0.02 0.03 0.05
0.77 0.49 0.53 0.52 0.38 0.25 0.24 0.25 0.28 0.27 0.26 0.22 0.19 0.13 0.10 0.08 0.06 0.07 0.07 0.07 0.10 0.14 0.09 0.00 0.00 0.00 0.01 0.03 0.05 0.07 0.13 0.19 0.13 0.14 0.17 0.11 0.04 0.07 0.08 0.06 0.02 0.01 0.01
0.96 0.82 0.62 0.63 0.56 0.49 0.45 0.39 0.32 0.26 0.21 0.15 0.10 0.10 0.07 0.05 0.03 0.03 0.01 0.00 0.00 0.01 0.01 0.00 0.00 0.00 0.00 0.00 0.00 0.00 0.00 0.02 0.04 0.04 0.13 0.19 0.12 0.09 0.10 0.11 0.10 0.05 0.02
0.72 0.50 0.36 0.28 0.29 0.34 0.36 0.30 0.22 0.17 0.16 0.14 0.13 0.12 0.08 0.04 0.02 0.02 0.01 0.01 0.01 0.00 0.01 0.00 0.00 0.00 0.00 0.00 0.00 0.00 0.00 0.00 0.00 0.00 0.03 0.08 0.14 0.11 0.11 0.09 0.08 0.09 0.10
0.19 0.12 0.10 0.13 0.15 0.14 0.20 0.27 0.29 0.27 0.22 0.14 0.12 0.11 0.10 0.08 0.03 0.01 0.01 0.01 0.01 0.01 0.02 0.05 0.02 0.00 0.00 0.00 0.00 0.01 0.01 0.01 0.00 0.01 0.01 0.02 0.02 0.04 0.06 0.05 0.05 0.07 0.11
0.22 0.15 0.13 0.14 0.14 0.14 0.14 0.12 0.11 0.08 0.08 0.08 0.08 0.09 0.08 0.07 0.04 0.02 0.02 0.01 0.02 0.02 0.02 0.03 0.03 0.02 0.02 0.02 0.03 0.03 0.04 0.03 0.02 0.02 0.02 0.02 0.02 0.02 0.03 0.05 0.05 0.07 0.12
0.06 0.08 0.12 0.19 0.18 0.12 0.12 0.11 0.07 0.05 0.06 0.08 0.07 0.06 0.05 0.08 0.07 0.03 0.02 0.01 0.03 0.04 0.06 0.08 0.06 0.05 0.04 0.03 0.05 0.05 0.09 0.05 0.04 0.04 0.05 0.04 0.06 0.06 0.06 0.06 0.07 0.07 0.06
0.10 0.14 0.16 0.15 0.12 0.10 0.17 0.11 0.06 0.03 0.04 0.05 0.04 0.04 0.06 0.10 0.05 0.03 0.01 0.01 0.03 0.10 0.16 0.13 0.11 0.10 0.07 0.09 0.12 0.14 0.15 0.15 0.13 0.06 0.10 0.09 0.09 0.08 0.06 0.09 0.15 0.14 0.11
0.27 0.23 0.23 0.17 0.10 0.07 0.13 0.07 0.07 0.03 0.05 0.04 0.04 0.03 0.02 0.03 0.04 0.01 0.01 0.02 0.02 0.04 0.11 0.17 0.21 0.15 0.15 0.14 0.17 0.16 0.16 0.22 0.19 0.07 0.11 0.11 0.07 0.08 0.05 0.05 0.09 0.07 0.06
0.28 0.19 0.11 0.09 0.09 0.11 0.12 0.06 0.05 0.01 0.03 0.03 0.03 0.03 0.02 0.01 0.01 0.02 0.09 0.09 0.05 0.03 0.04 0.06 0.12 0.10 0.11 0.11 0.16 0.17 0.20 0.19 0.11 0.04 0.07 0.14 0.05 0.06 0.05 0.04 0.04 0.07 0.07
0.10 0.07 0.06 0.05 0.07 0.10 0.11 0.06 0.05 0.04 0.06 0.06 0.05 0.04 0.02 0.02 0.04 0.09 0.14 0.13 0.07 0.05 0.05 0.06 0.09 0.11 0.11 0.09 0.12 0.24 0.26 0.30 0.25 0.07 0.06 0.14 0.08 0.08 0.09 0.08 0.09 0.07 0.04
0.06 0.06 0.06 0.05 0.10 0.08 0.13 0.09 0.08 0.08 0.10 0.08 0.04 0.02 0.03 0.04 0.12 0.16 0.25 0.23 0.21 0.08 0.09 0.10 0.09 0.08 0.07 0.07 0.07 0.14 0.23 0.43 0.34 0.27 0.07 0.29 0.15 0.22 0.31 0.13 0.09 0.03 0.02